Welcome to the New NWS' Forecast!
Most changes are behind the scenes, but click here for differences you might notice.

Regional Weather Roundup (RWR)

Issued by Columbia, SC (CAE)

                            
962 
ASUS42 KCAE 201210
RWRCAE
REGIONAL WEATHER ROUNDUP
NATIONAL WEATHER SERVICE COLUMBIA SC
800 AM EDT MON AUG 20 2018

NOTE: "FAIR" INDICATES FEW OR NO CLOUDS BELOW 12,000 FEET WITH NO
SIGNIFICANT WEATHER AND/OR OBSTRUCTIONS TO VISIBILITY.

NOT ALL STATIONS ARE QUALITY CONTROLLED BY THE NATIONAL 
WEATHER SERVICE. USE DATA WITH CAUTION...ESPECIALLY 
DEWPOINT OBSERVATIONS.

SCZ001>056-GAZ040-063>065-077-201300-
...UPSTATE SOUTH CAROLINA...
  
CITY           SKY/WX    TMP DP  RH WIND       PRES   REMARKS
ANDERSON       FAIR      75  72  90 SW7       30.04R                  
6HR MIN TEMP:  73; 6HR MAX TEMP:  75;                                

LIBERTY        CLOUDY    72  72 100 CALM      30.03R FOG              
6HR MIN TEMP:  70; 6HR MAX TEMP:  73;                                

SPARTANBURG    CLOUDY    72  72 100 CALM      30.04R FOG              
CLEMSON        FAIR      73  72  96 CALM      30.04R                  
6HR MIN TEMP:  72; 6HR MAX TEMP:  73;                                

GREENVILLE     CLOUDY    75  73  93 CALM      30.05R                  
6HR MIN TEMP:  75; 6HR MAX TEMP:  75;                                

GREENWOOD      PTSUNNY   73  72  96 SW7       30.06R                  
6HR MIN TEMP:  72; 6HR MAX TEMP:  75;                                

GREER          CLOUDY    75  73  93 SW3       30.05R                  
6HR MIN TEMP:  72; 6HR MAX TEMP:  75;                                

ROCK HILL      CLOUDY    74  74 100 VRB3      30.05R                  
6HR MIN TEMP:  72; 6HR MAX TEMP:  75;                                

CHESTER        CLOUDY    72  72 100 CALM      30.04R FOG              
LAURENS        PTSUNNY   72  72 100 CALM      30.04R FOG              


...CENTRAL SOUTH CAROLINA...
  
CITY           SKY/WX    TMP DP  RH WIND       PRES   REMARKS
COLUMBIA APT   PTSUNNY   76  74  93 W3        30.05R                  
6HR MIN TEMP:  75; 6HR MAX TEMP:  78;                                

COLUMBIA OWENS PTSUNNY   74  72  93 CALM      30.06R                  
6HR MIN TEMP:  74; 6HR MAX TEMP:  78;                                

MCENTIRE ANGB  MOSUNNY   73  73 100 CALM      30.06R                  
6HR MIN TEMP:  72; 6HR MAX TEMP:  76;                                

ORANGEBURG     CLOUDY    73  70  90 S5        30.06R                  
6HR MIN TEMP:  71; 6HR MAX TEMP:  75;                                

SUMTER SHAW    MOSUNNY   73  71  92 SW5       30.05R                  
6HR MIN TEMP:  72; 6HR MAX TEMP:  76;                                

NEWBERRY       PTSUNNY   72  72 100 SW6       30.08R                  
AIKEN          CLOUDY    72  72 100 SW5       30.09R FOG              
BARNWELL       CLOUDY    73  72  94 SW6       30.07R                  
MANNING        FAIR      70  68  94 SW3       30.07R                  
CAMDEN         PTSUNNY   73  73 100 S5        30.06R FOG              
LANCASTER      CLOUDY    73  73 100 MISG      30.05R                  
WINNSBORO      FAIR      72  72 100 S5        30.05R                  


...EASTERN AND COASTAL SOUTH CAROLINA...
  
CITY           SKY/WX    TMP DP  RH WIND       PRES   REMARKS
MYRTLE BEACH   FAIR      78  71  79 W8        30.06R                  
6HR MIN TEMP:  77; 6HR MAX TEMP:  80;                                

N MYRTLE BCH   FAIR      78  71  79 W5        30.05R                  
6HR MIN TEMP:  78; 6HR MAX TEMP:  80;                                

CONWAY         FAIR      73  73 100 CALM      30.06R                  
MARION           N/A     73  70  88 SW5       30.05S FOG              
HARTSVILLE     CLOUDY    72  72 100 S6        30.05R                  
FLORENCE       FAIR      76  72  87 SW8       30.06R                  
6HR MIN TEMP:  74; 6HR MAX TEMP:  78;                                

DARLINGTON     CLOUDY    74  72  93 S7        30.06R                  
6HR MIN TEMP:  74; 6HR MAX TEMP:  76;                                

CHARLESTON APT FAIR      77  72  84 W7        30.06R                  
6HR MIN TEMP:  74; 6HR MAX TEMP:  77;                                

WALTERBORO     FAIR      73  70  88 W3        30.08R                  


...EASTERN GEORGIA...
  
CITY           SKY/WX    TMP DP  RH WIND       PRES   REMARKS
AUGUSTA BUSH F PTSUNNY   77  73  87 W5        30.04R                  
6HR MIN TEMP:  73; 6HR MAX TEMP:  76;                                

AUGUSTA DANIEL CLOUDY    76  74  93 W5        30.06R                  
6HR MIN TEMP:  75; 6HR MAX TEMP:  77;                                

THOMSON        CLOUDY    74  72  95 W3        30.11R                  
6HR MIN TEMP:  72; 6HR MAX TEMP:  74;                                

CLAXTON        FAIR      75  73  96 CALM      30.08R                  
6HR MIN TEMP:  73; 6HR MAX TEMP:  75;                                

SYLVANIA         N/A     73  73 100 CALM      30.09R                  
6HR MIN TEMP:  73; 6HR MAX TEMP:  74;                                

STATESBORO     CLOUDY    73  72  95 CALM      30.08R                  
6HR MIN TEMP:  72; 6HR MAX TEMP:  74;                                

SAVANNAH       PTSUNNY   76  73  91 SW5       30.08R                  
6HR MIN TEMP:  73; 6HR MAX TEMP:  76;                                



...SOUTHERN NORTH CAROLINA...
  
CITY           SKY/WX    TMP DP  RH WIND       PRES   REMARKS
CHARLOTTE      PTSUNNY   75  74  96 VRB3      30.04R                  
6HR MIN TEMP:  74; 6HR MAX TEMP:  77;                                

MONROE         CLOUDY    73  71  93 S3        30.04R                  
6HR MIN TEMP:  71; 6HR MAX TEMP:  76;                                

WADESBORO      FAIR      74  72  94 S3        30.04R FOG              
6HR MIN TEMP:  72; 6HR MAX TEMP:  76;                                

ROCKINGHAM     CLOUDY    73  72  99 S3        30.04R FOG              
6HR MIN TEMP:  72; 6HR MAX TEMP:  74;                                

RUTHERFORDTON  CLOUDY    72  72 100 CALM      30.06R FOG              
ASHEVILLE      CLOUDY    70  68  93 N5        30.11R FOG              
6HR MIN TEMP:  70; 6HR MAX TEMP:  71;                                


$$